Flag for U.S.A. Weather past 2 weeks in Wheaton, Illinois, U.S.A.

Now
82 °F

Broken clouds.


Feels Like: 83 °F
Forecast: 65 / 81 °F
Wind: 20 mph from Southwest

Location: Dupage Airport

Current Time: May 29, 2015 at 5:42:59 PM

Latest Report: May 29, 2015 at 4:52 PM


Visibility: 10 mi

Pressure: 29.89 "Hg

Humidity: 55%

Dew point: 64 °F

Location of WheatonLocation

Historic Weather in Wheaton — Graph

°F

Wheaton temperature yesterday

Maximum temperature yesterday: 82 °F (at 2:52 PM)
Minimum temperature yesterday: 53 °F (at 5:52 AM)
Average temperature yesterday: 69 °F

Past Weeks' High & Low Weather Summary

 TemperatureHumidityPressure
High82 °F (May 28, 2:52 PM)97% (May 16, 4:52 AM)30.34 "Hg (May 16, 4:52 AM)
Low37 °F (May 20, 2:52 AM)25% (May 23, 3:52 PM)29.74 "Hg (May 26, 3:52 PM)
Average64 °F69%30.04 "Hg
* Reported May 14 3:52 PM — May 29 3:52 PM, Wheaton, Weather by CustomWeather, © 2015

Note: Actual official high and low records may vary slightly from our data, if they occured in-between our weather recording intervals... More about our weather records

Advertising

Wheaton weather history for previous 24 hours

 ConditionsComfort  
Time TempWeatherWind HumidityBarometerVisibility
3:52 PM
Fri, May 29
79 °FBroken clouds.13 mph62%29.89 "Hg10 mi
2:52 PM81 °FBroken clouds.20 mph60%29.91 "Hg10 mi
1:52 PM79 °FMostly cloudy.17 mph65%29.93 "Hg10 mi
12:52 PM78 °FPassing clouds.15 mph66%29.96 "Hg10 mi
11:52 AM75 °FPartly sunny.14 mph79%29.99 "Hg10 mi
10:52 AM75 °FLight rain. Broken clouds.12 mph74%30.01 "Hg7 mi
9:52 AM78 °FPassing clouds.13 mph66%30.01 "Hg10 mi
8:52 AM76 °FSunny.10 mph72%30.01 "Hg10 mi
7:52 AM72 °FPassing clouds.8 mph78%30.02 "Hg7 mi
6:52 AM68 °FSunny.6 mph84%30.01 "Hg7 mi
5:52 AM65 °FPassing clouds.5 mph87%30.00 "Hg9 mi
4:52 AM66 °FClear.6 mph78%29.99 "Hg10 mi
3:52 AM65 °FClear.5 mph76%30.01 "Hg10 mi
2:52 AM66 °FClear.6 mph73%30.02 "Hg10 mi
1:52 AM64 °FClear.6 mph75%30.02 "Hg10 mi
12:52 AM66 °FClear.No wind68%30.03 "Hg10 mi
11:52 PM
Thu, May 28
67 °FClear.6 mph66%30.04 "Hg10 mi
10:52 PM68 °FClear.7 mph61%30.04 "Hg10 mi
9:52 PM70 °FClear.9 mph57%30.05 "Hg10 mi
8:52 PM73 °FSunny.9 mph50%30.05 "Hg10 mi
7:52 PM76 °FSunny.8 mph45%30.07 "Hg10 mi
6:52 PM80 °FSunny.10 mph39%30.08 "Hg10 mi
5:52 PM82 °FSunny.9 mph34%30.08 "Hg10 mi
Weather by CustomWeather, © 2015

See weather overviewHow to use our weather pages